星链-32667 (STARLINK-32667)

导读

STARLINK-32667是美国SpaceX公司于2024年12月4日发射的星链(Starlink)卫星,属于SpaceX打造的全球低轨宽带互联网星座的组成部分。该卫星采用平板设计,搭载Ku/Ka波段通信载荷与氪工质霍尔推进器,具备自主避撞能力,运行于近地轨道,旨在为全球提供高速宽带互联网服务,服役末期将主动离轨坠入大气层烧毁。

Basic Information
目录编号:
62201
目录名称:
STARLINK-32667
国际标识:
2024-229K
轨道中心:
EARTH
卫星名称:
星链-32667
卫星全名:
星链-32667 (STARLINK-32667)
卫星状态:
在轨 (已飞行639 天)
发射日期:
2024-12-04 UTC
国别 :
美国 (US)
星等 :
--
Orbit Information
数据来源 国际轨道数据
星历时间: 2026-09-04T13:54:30+0800
13小时前
查看轨道信息
半长轴: 6861.323km
偏心率: 0.0001711
轨道倾角: 43.003°
近地点辐角 255.632°
升交点赤经 341.947°
平近点角 104.435°
近地点: 482.012km
远地点: 484.36km
周期: 94.270分钟
每日圈数: 15.275346
Detailed Information
固有亮度:
5
最大亮度:
2.5
卫星平台:
Starlink V1.0
覆盖范围:
全球
运营商:
太空探索技术公司
运营商所在国:
美国
制造商(研发单位):
太空探索技术公司
制造商所在国:
美国
使用方式:
暂无
Satellite Introduction
Starlink 计划是 SpaceX 推出的全球卫星互联网项目,通过发射低轨道卫星,为全球尤其是偏远地区提供高速、低延迟的互联网服务。自 2019 年起,Starlink 已部署数千颗卫星,旨在缩小全球数字鸿沟,推动互联网普及。该项目还为军事、航空等行业提供通信支持,带来广泛经济效益。
2D Orbit Map
3D Orbit Map
Orbit Altitude Analysis Chart
Orbit Inclination Analysis Chart
Orbit Comprehensive Analysis Chart
View Comprehensive Chart
Conjunction Data List
Event ID Objects TCA Miss Dist (km) Collision Risk Probability Collision Risk Index (CRI) Action
CDM_260906-184006-220106-791921
2026-09-06T
18:40:43+0000
0.177 km
中距离
5.033223E-4 高风险 0.89
CDM_260906-092206-220106-750421
2026-09-06T
09:22:30+0000
0.357 km
远距离
2.02932E-4 高风险 0.81
CDM_260905-231306-220106-658421
2026-09-05T
23:13:58+0000
0.571 km
远距离
8.837688E-5 中风险 0.74
CDM_260906-030705-546206-220121
2026-09-06T
03:07:22+0000
0.584 km
远距离
7.134194E-5 中风险 0.72
CDM_260905-161006-220106-658421
2026-09-05T
16:10:16+0000
1.003 km
极远距离
1.493688E-5 中风险 0.58
CDM_260906-160606-220106-763821
2026-09-06T
16:06:53+0000
1.199 km
极远距离
1.053079E-5 中风险 0.55
CDM_260906-145305-546206-220121
2026-09-06T
14:53:33+0000
1.088 km
极远距离
9.554782E-6 低风险 0.55
CDM_260906-131905-546206-220121
2026-09-06T
13:19:24+0000
1.090 km
极远距离
9.485524E-6 低风险 0.55
CDM_260906-044105-546206-220121
2026-09-06T
04:41:31+0000
1.112 km
极远距离
8.85605E-6 低风险 0.54
CDM_260907-035306-220106-763821
2026-09-07T
03:53:04+0000
1.315 km
极远距离
7.651407E-6 低风险 0.53